Regional Weather Roundup
Issued by NWS Cleveland, OH

Home | Current Version | Previous Version | Text Only | Print | Product List | Glossary Off
Versions: 1 2 3 4 5 6 7 8 9 10 11 12 13 14 15 16 17 18 19 20 21 22 23 24 25 26 27 28 29 30 31 32 33 34 35 36 37 38 39 40 41 42 43 44 45 46 47 48 49 50

000
ASUS41 KCLE 210512
RWRCLE
OHIO REGIONAL WEATHER ROUNDUP
NATIONAL WEATHER SERVICE WILMINGTON, OH
100 AM EDT THU SEP 21 2017

NOTE: "FAIR" INDICATES FEW OR NO CLOUDS BELOW 12,000 FEET WITH NO
SIGNIFICANT WEATHER AND/OR OBSTRUCTIONS TO VISIBILITY.

OHZ001>008-015>018-024>027-034-035-043-044-210600-
   NORTHWEST OHIO

CITY           SKY/WX    TMP DP  RH WIND       PRES   REMARKS
DEFIANCE       FAIR      68  65  90 CALM      30.02R
FINDLAY        FAIR      70  63  78 CALM      30.02R
TOLEDO EXPRESS FAIR      66  66 100 CALM      30.03R FOG
TOLEDO EXEC    FAIR      68  65  90 CALM      30.03R
LIMA           FAIR      66  66 100 CALM      30.04R
$$

OHZ009>014-019>023-028>033-038-089-210600-
   NORTHEAST OHIO

CITY           SKY/WX    TMP DP  RH WIND       PRES   REMARKS
CLE-HOPKINS    FAIR      71  62  73 CALM      30.04S
CLE-LAKEFRONT  FAIR      72  63  73 SE7       30.01S
CUY CO. ARPT   NOT AVBL
LORAIN-ELYRIA  FAIR      63  57  81 CALM      30.04R
ASHTABULA      FAIR      62  62 100 E5        30.05S
AKRON-CANTON   FAIR      68  63  84 CALM      30.05S
WOOSTER        FAIR      60  59  96 CALM      30.06R
MANSFIELD      FAIR      67  65  93 S5        30.06R
YOUNGSTOWN     FAIR      64  62  93 NE3       30.05S
$$

OHZ042-051>053-060>062-070>072-077>081-210600-
  SOUTHWEST OHIO

CITY           SKY/WX    TMP DP  RH WIND       PRES   REMARKS
CINC-COVINGTON FAIR      71  70  96 S5        30.03S
CINC-LUNKEN    FOG       67  67 100 CALM      30.03S VSB 1/2
HAMILTON       FAIR      65  65 100 CALM      30.04R FOG
DAYTON         FAIR      68  65  90 CALM      30.05R
WRIGHT-PAT AFB FAIR      68  68 100 CALM      30.04R
DAYTON GENERAL FAIR      70  65  84 S3        30.03R
WILMINGTON     FAIR      67  67 100 CALM      30.04S
$$

OHZ036-037-039>041-045>050-054>059-063>069-073>076-082>088-210600-
  CENTRAL AND SOUTHEAST OHIO

CITY           SKY/WX    TMP DP  RH WIND       PRES   REMARKS
COLUMBUS       FAIR      69  67  93 CALM      30.03S
OSU AIRPORT    FAIR      67  67 100 CALM      30.04R
BOLTON FIELD   FAIR      65  64  99 CALM      30.04S
RICKENBACK AFB FAIR      66  66 100 CALM      30.03S
NEWARK         FOG       64  63  96 CALM      30.04S VSB 1/2
MARION         FAIR      66  63  90 CALM      30.05R
LANCASTER      FAIR      63  63 100 CALM      30.04S FOG
ZANESVILLE     FAIR      66  64  93 CALM      30.05R
NEW PHILLY     FAIR      64  64 100 CALM      30.05S FOG
$$




USA.gov is the U.S. government's official web portal to all federal, state and local government web resources and services.